Time,TemperatureF,DewpointF,PressureIn,WindDirection,WindDirectionDegrees,WindSpeedMPH,WindSpeedGustMPH,Humidity,HourlyPrecipIn,Conditions,Clouds,dailyrainin,SoftwareType,DateUTC
2013-04-29 00:02:00,73.0,68.0,-100.00,SSW,196,2.0,5.0,83,0.00,,,0.00,,2013-04-29 10:02:00,
2013-04-29 00:12:00,73.0,68.0,-100.00,SSW,196,2.0,5.0,83,0.00,,,0.00,,2013-04-29 10:12:00,
2013-04-29 00:23:00,73.0,68.0,-100.00,SSW,196,2.0,5.0,83,0.00,,,0.00,,2013-04-29 10:23:00,
2013-04-29 00:32:00,73.0,68.0,-100.00,SSW,196,2.0,5.0,83,0.00,,,0.00,,2013-04-29 10:32:00,
2013-04-29 00:41:00,73.0,68.0,-100.00,South,189,3.0,6.0,85,0.00,,,0.00,,2013-04-29 10:41:00,
2013-04-29 01:02:00,73.0,68.0,-100.00,South,189,3.0,6.0,85,0.00,,,0.00,,2013-04-29 11:02:00,
2013-04-29 01:12:00,73.0,68.0,-100.00,South,189,3.0,6.0,85,0.00,,,0.00,,2013-04-29 11:12:00,
2013-04-29 01:21:00,73.0,68.0,-100.00,South,189,3.0,6.0,85,0.00,,,0.00,,2013-04-29 11:21:00,
2013-04-29 01:32:00,73.0,68.0,-100.00,South,189,3.0,6.0,85,0.00,,,0.00,,2013-04-29 11:32:00,
2013-04-29 01:41:00,74.0,70.0,-100.00,South,182,3.0,6.0,86,0.00,,,0.00,,2013-04-29 11:41:00,
2013-04-29 02:01:00,74.0,70.0,-100.00,South,182,3.0,6.0,86,0.00,,,0.00,,2013-04-29 12:01:00,
2013-04-29 02:12:00,74.0,70.0,-100.00,South,182,3.0,6.0,86,0.00,,,0.00,,2013-04-29 12:12:00,
2013-04-29 02:21:00,74.0,70.0,-100.00,South,182,3.0,6.0,86,0.00,,,0.00,,2013-04-29 12:21:00,
2013-04-29 02:31:00,74.0,70.0,-100.00,South,182,3.0,6.0,86,0.00,,,0.00,,2013-04-29 12:31:00,
2013-04-29 02:41:00,74.0,70.0,-100.00,South,173,3.0,7.0,87,0.00,,,0.00,,2013-04-29 12:41:00,
2013-04-29 03:01:00,74.0,70.0,-100.00,South,173,3.0,7.0,87,0.00,,,0.00,,2013-04-29 13:01:00,
2013-04-29 03:11:00,74.0,70.0,-100.00,South,173,3.0,7.0,87,0.00,,,0.00,,2013-04-29 13:11:00,
2013-04-29 03:21:00,74.0,70.0,-100.00,South,173,3.0,7.0,87,0.00,,,0.00,,2013-04-29 13:21:00,
2013-04-29 03:31:00,74.0,70.0,-100.00,South,173,3.0,7.0,87,0.00,,,0.00,,2013-04-29 13:31:00,
2013-04-29 03:41:00,73.0,69.0,-100.00,South,173,3.0,8.0,87,0.00,,,0.00,,2013-04-29 13:41:00,
2013-04-29 04:01:00,73.0,69.0,-100.00,South,173,3.0,8.0,87,0.00,,,0.00,,2013-04-29 14:01:00,
2013-04-29 04:11:00,73.0,69.0,-100.00,South,173,3.0,8.0,87,0.00,,,0.00,,2013-04-29 14:11:00,
2013-04-29 04:21:00,73.0,69.0,-100.00,South,173,3.0,8.0,87,0.00,,,0.00,,2013-04-29 14:21:00,
2013-04-29 04:32:00,73.0,69.0,-100.00,South,173,3.0,8.0,87,0.00,,,0.00,,2013-04-29 14:32:00,
2013-04-29 04:41:00,74.0,70.0,-100.00,SSW,201,2.0,8.0,87,0.00,,,0.00,,2013-04-29 14:41:00,
2013-04-29 05:01:00,74.0,70.0,-100.00,SSW,201,2.0,8.0,87,0.00,,,0.00,,2013-04-29 15:01:00,
2013-04-29 05:12:00,74.0,70.0,-100.00,SSW,201,2.0,8.0,87,0.00,,,0.00,,2013-04-29 15:12:00,
2013-04-29 05:21:00,74.0,70.0,-100.00,SSW,201,2.0,8.0,87,0.00,,,0.00,,2013-04-29 15:21:00,
2013-04-29 05:33:00,74.0,70.0,-100.00,SSW,201,2.0,8.0,87,0.00,,,0.00,,2013-04-29 15:33:00,
2013-04-29 05:41:00,74.0,70.0,-100.00,South,188,3.0,8.0,87,0.00,,,0.00,,2013-04-29 15:41:00,
2013-04-29 06:02:00,74.0,70.0,-100.00,South,188,3.0,8.0,87,0.00,,,0.00,,2013-04-29 16:02:00,
2013-04-29 06:12:00,74.0,70.0,-100.00,South,188,3.0,8.0,87,0.00,,,0.00,,2013-04-29 16:12:00,
2013-04-29 06:23:00,74.0,70.0,-100.00,South,188,3.0,8.0,87,0.00,,,0.00,,2013-04-29 16:23:00,
2013-04-29 06:32:00,74.0,70.0,-100.00,South,188,3.0,8.0,87,0.00,,,0.00,,2013-04-29 16:32:00,
2013-04-29 06:41:00,74.0,70.0,-100.00,South,172,3.0,6.0,87,0.00,,,0.00,,2013-04-29 16:41:00,
2013-04-29 07:02:00,74.0,70.0,-100.00,South,172,3.0,6.0,87,0.00,,,0.00,,2013-04-29 17:02:00,
2013-04-29 07:12:00,74.0,70.0,-100.00,South,172,3.0,6.0,87,0.00,,,0.00,,2013-04-29 17:12:00,
2013-04-29 07:22:00,74.0,70.0,-100.00,South,172,3.0,6.0,87,0.00,,,0.00,,2013-04-29 17:22:00,
2013-04-29 07:31:00,74.0,70.0,-100.00,South,172,3.0,6.0,87,0.00,,,0.00,,2013-04-29 17:31:00,
2013-04-29 07:41:00,76.0,72.0,-100.00,South,189,4.0,13.0,87,0.01,,,0.01,,2013-04-29 17:41:00,
2013-04-29 08:01:00,76.0,72.0,-100.00,South,189,4.0,13.0,87,0.01,,,0.01,,2013-04-29 18:01:00,
2013-04-29 08:13:00,76.0,72.0,-100.00,South,189,4.0,13.0,87,0.01,,,0.01,,2013-04-29 18:13:00,
2013-04-29 08:22:00,76.0,72.0,-100.00,South,189,4.0,13.0,87,0.01,,,0.01,,2013-04-29 18:22:00,
2013-04-29 08:31:00,76.0,72.0,-100.00,South,189,4.0,13.0,87,0.01,,,0.01,,2013-04-29 18:31:00,
2013-04-29 08:41:00,79.0,74.0,-100.00,SSE,166,8.0,14.0,84,0.00,,,0.01,,2013-04-29 18:41:00,
2013-04-29 09:01:00,79.0,74.0,-100.00,SSE,166,8.0,14.0,84,0.00,,,0.01,,2013-04-29 19:01:00,
2013-04-29 09:11:00,79.0,74.0,-100.00,SSE,166,8.0,14.0,84,0.00,,,0.01,,2013-04-29 19:11:00,
2013-04-29 09:21:00,79.0,74.0,-100.00,SSE,166,8.0,14.0,84,0.00,,,0.01,,2013-04-29 19:21:00,
2013-04-29 09:31:00,79.0,74.0,-100.00,SSE,166,8.0,14.0,84,0.00,,,0.01,,2013-04-29 19:31:00,
2013-04-29 09:41:00,79.0,73.0,-100.00,SSE,157,8.0,14.0,81,0.00,,,0.01,,2013-04-29 19:41:00,
2013-04-29 10:02:00,79.0,73.0,-100.00,SSE,157,8.0,14.0,81,0.00,,,0.01,,2013-04-29 20:02:00,
2013-04-29 10:11:00,79.0,73.0,-100.00,SSE,157,8.0,14.0,81,0.00,,,0.01,,2013-04-29 20:11:00,
2013-04-29 10:21:00,79.0,73.0,-100.00,SSE,157,8.0,14.0,81,0.00,,,0.01,,2013-04-29 20:21:00,
2013-04-29 10:32:00,79.0,73.0,-100.00,SSE,157,8.0,14.0,81,0.00,,,0.01,,2013-04-29 20:32:00,
2013-04-29 10:41:00,80.0,73.0,-100.00,SSE,166,10.0,16.0,78,0.00,,,0.01,,2013-04-29 20:41:00,
2013-04-29 11:01:00,80.0,73.0,-100.00,SSE,166,10.0,16.0,78,0.00,,,0.01,,2013-04-29 21:01:00,
2013-04-29 11:11:00,80.0,73.0,-100.00,SSE,166,10.0,16.0,78,0.00,,,0.01,,2013-04-29 21:11:00,
2013-04-29 11:21:00,80.0,73.0,-100.00,SSE,166,10.0,16.0,78,0.00,,,0.01,,2013-04-29 21:21:00,
2013-04-29 11:33:00,80.0,73.0,-100.00,SSE,166,10.0,16.0,78,0.00,,,0.01,,2013-04-29 21:33:00,
2013-04-29 11:41:00,80.0,72.0,-100.00,South,174,9.0,17.0,76,0.00,,,0.01,,2013-04-29 21:41:00,
2013-04-29 12:02:00,80.0,72.0,-100.00,South,174,9.0,17.0,76,0.00,,,0.01,,2013-04-29 22:02:00,
2013-04-29 12:13:00,80.0,72.0,-100.00,South,174,9.0,17.0,76,0.00,,,0.01,,2013-04-29 22:13:00,
2013-04-29 12:23:00,80.0,72.0,-100.00,South,174,9.0,17.0,76,0.00,,,0.01,,2013-04-29 22:23:00,
2013-04-29 12:32:00,80.0,72.0,-100.00,South,174,9.0,17.0,76,0.00,,,0.01,,2013-04-29 22:32:00,
2013-04-29 12:41:00,80.0,72.0,-100.00,SSE,161,10.0,18.0,76,0.00,,,0.01,,2013-04-29 22:41:00,
2013-04-29 13:02:00,80.0,72.0,-100.00,SSE,161,10.0,18.0,76,0.00,,,0.01,,2013-04-29 23:02:00,
2013-04-29 13:11:00,80.0,72.0,-100.00,SSE,161,10.0,18.0,76,0.00,,,0.01,,2013-04-29 23:11:00,
2013-04-29 13:22:00,80.0,72.0,-100.00,SSE,161,10.0,18.0,76,0.00,,,0.01,,2013-04-29 23:22:00,
2013-04-29 13:32:00,80.0,72.0,-100.00,SSE,161,10.0,18.0,76,0.00,,,0.01,,2013-04-29 23:32:00,
2013-04-29 13:41:00,80.0,71.0,-100.00,South,170,9.0,17.0,75,0.00,,,0.01,,2013-04-29 23:41:00,
2013-04-29 14:01:00,80.0,71.0,-100.00,South,170,9.0,17.0,75,0.00,,,0.01,,2013-04-30 00:01:00,
2013-04-29 14:11:00,80.0,71.0,-100.00,South,170,9.0,17.0,75,0.00,,,0.01,,2013-04-30 00:11:00,
2013-04-29 14:21:00,80.0,71.0,-100.00,South,170,9.0,17.0,75,0.00,,,0.01,,2013-04-30 00:21:00,
2013-04-29 14:31:00,80.0,71.0,-100.00,South,170,9.0,17.0,75,0.00,,,0.01,,2013-04-30 00:31:00,
2013-04-29 14:41:00,80.0,71.0,-100.00,South,179,9.0,16.0,73,0.00,,,0.01,,2013-04-30 00:41:00,
2013-04-29 15:01:00,80.0,71.0,-100.00,South,179,9.0,16.0,73,0.00,,,0.01,,2013-04-30 01:01:00,
2013-04-29 15:11:00,80.0,71.0,-100.00,South,179,9.0,16.0,73,0.00,,,0.01,,2013-04-30 01:11:00,
2013-04-29 15:21:00,80.0,71.0,-100.00,South,179,9.0,16.0,73,0.00,,,0.01,,2013-04-30 01:21:00,
2013-04-29 15:32:00,80.0,71.0,-100.00,South,179,9.0,16.0,73,0.00,,,0.01,,2013-04-30 01:32:00,
2013-04-29 15:41:00,81.0,71.0,-100.00,SSE,168,9.0,15.0,72,0.00,,,0.01,,2013-04-30 01:41:00,
2013-04-29 16:01:00,81.0,71.0,-100.00,SSE,168,9.0,15.0,72,0.00,,,0.01,,2013-04-30 02:01:00,
2013-04-29 16:11:00,81.0,71.0,-100.00,SSE,168,9.0,15.0,72,0.00,,,0.01,,2013-04-30 02:11:00,
2013-04-29 16:21:00,81.0,71.0,-100.00,SSE,168,9.0,15.0,72,0.00,,,0.01,,2013-04-30 02:21:00,
2013-04-29 16:31:00,81.0,71.0,-100.00,SSE,168,9.0,15.0,72,0.00,,,0.01,,2013-04-30 02:31:00,
2013-04-29 16:41:00,80.0,70.0,-100.00,South,173,7.0,14.0,71,0.00,,,0.01,,2013-04-30 02:41:00,
2013-04-29 17:01:00,80.0,70.0,-100.00,South,173,7.0,14.0,71,0.00,,,0.01,,2013-04-30 03:01:00,
2013-04-29 17:11:00,80.0,70.0,-100.00,South,173,7.0,14.0,71,0.00,,,0.01,,2013-04-30 03:11:00,
2013-04-29 17:21:00,80.0,70.0,-100.00,South,173,7.0,14.0,71,0.00,,,0.01,,2013-04-30 03:21:00,
2013-04-29 17:33:00,80.0,70.0,-100.00,South,173,7.0,14.0,71,0.00,,,0.01,,2013-04-30 03:33:00,
2013-04-29 18:41:00,77.0,68.0,-100.00,SSE,166,5.0,10.0,74,-99.99,,,0.01,,2013-04-30 04:41:00,
2013-04-29 19:02:00,77.0,68.0,-100.00,SSE,166,5.0,10.0,74,-99.99,,,0.01,,2013-04-30 05:02:00,
2013-04-29 19:11:00,77.0,68.0,-100.00,SSE,166,5.0,10.0,74,-99.99,,,0.01,,2013-04-30 05:11:00,
2013-04-29 19:22:00,77.0,68.0,-100.00,SSE,166,5.0,10.0,74,-99.99,,,0.01,,2013-04-30 05:22:00,
2013-04-29 19:31:00,77.0,68.0,-100.00,SSE,166,5.0,10.0,74,-99.99,,,0.01,,2013-04-30 05:31:00,
2013-04-29 19:41:00,76.0,68.0,-100.00,South,189,4.0,9.0,77,0.00,,,0.01,,2013-04-30 05:41:00,
2013-04-29 20:01:00,76.0,68.0,-100.00,South,189,4.0,9.0,77,0.00,,,0.01,,2013-04-30 06:01:00,
2013-04-29 20:11:00,76.0,68.0,-100.00,South,189,4.0,9.0,77,0.00,,,0.01,,2013-04-30 06:11:00,
2013-04-29 20:21:00,76.0,68.0,-100.00,South,189,4.0,9.0,77,0.00,,,0.01,,2013-04-30 06:21:00,
2013-04-29 20:31:00,76.0,68.0,-100.00,South,189,4.0,9.0,77,0.00,,,0.01,,2013-04-30 06:31:00,
2013-04-29 20:41:00,76.0,69.0,-100.00,SSW,204,4.0,8.0,79,0.00,,,0.01,,2013-04-30 06:41:00,
2013-04-29 21:01:00,76.0,69.0,-100.00,SSW,204,4.0,8.0,79,0.00,,,0.01,,2013-04-30 07:01:00,
2013-04-29 21:11:00,76.0,69.0,-100.00,SSW,204,4.0,8.0,79,0.00,,,0.01,,2013-04-30 07:11:00,
2013-04-29 21:21:00,76.0,69.0,-100.00,SSW,204,4.0,8.0,79,0.00,,,0.01,,2013-04-30 07:21:00,
2013-04-29 21:31:00,76.0,69.0,-100.00,SSW,204,4.0,8.0,79,0.00,,,0.01,,2013-04-30 07:31:00,
2013-04-29 21:41:00,75.0,68.0,-100.00,SSW,212,2.0,6.0,80,0.00,,,0.01,,2013-04-30 07:41:00,
2013-04-29 22:02:00,75.0,68.0,-100.00,SSW,212,2.0,6.0,80,0.00,,,0.01,,2013-04-30 08:02:00,
2013-04-29 22:11:00,75.0,68.0,-100.00,SSW,212,2.0,6.0,80,0.00,,,0.01,,2013-04-30 08:11:00,
2013-04-29 22:21:00,75.0,68.0,-100.00,SSW,212,2.0,6.0,80,0.00,,,0.01,,2013-04-30 08:21:00,
2013-04-29 22:32:00,75.0,68.0,-100.00,SSW,212,2.0,6.0,80,0.00,,,0.01,,2013-04-30 08:32:00,
2013-04-29 22:41:00,73.0,67.0,-100.00,SSW,193,1.0,3.0,82,0.00,,,0.01,,2013-04-30 08:41:00,
2013-04-29 23:01:00,73.0,67.0,-100.00,SSW,193,1.0,3.0,82,0.00,,,0.01,,2013-04-30 09:01:00,
2013-04-29 23:11:00,73.0,67.0,-100.00,SSW,193,1.0,3.0,82,0.00,,,0.01,,2013-04-30 09:11:00,
2013-04-29 23:22:00,73.0,67.0,-100.00,SSW,193,1.0,3.0,82,0.00,,,0.01,,2013-04-30 09:22:00,
2013-04-29 23:33:00,73.0,67.0,-100.00,SSW,193,1.0,3.0,82,0.00,,,0.01,,2013-04-30 09:33:00,
2013-04-29 23:41:00,72.0,67.0,-100.00,NW,316,3.0,4.0,84,0.00,,,0.01,,2013-04-30 09:41:00,